Tracking 19245 objects as of 14-Aug-2018
HD Live streaming from Space Station
objects crossing your sky now

NSS 703 (INTELSAT 703)

Track NSS 703 (INTELSAT 703) now!
NSS 703 (INTELSAT 703) is classified as:


NORAD ID: 23305
Int'l Code: 1994-064A
Perigee: 36,034.3 km
Apogee: 36,101.0 km
Inclination: 6.7 °
Period: 1,450.1 minutes
Semi major axis: 42438 km
RCS: 0.003 m2 (small)
Launch date: October 6, 1994
Source: SOCIETE EUROPEENNE DES SATELLITES (SES)
Launch site: AIR FORCE EASTERN TEST RANGE (AFETR)

Africa, Japan, India, China, Australia; 26 C-band, 10 Ku-band; shared capacity with Intelset.
aabbcc
Your satellite tracking list
Your tracking list is empty




NASA's NSSDC Master Catalog

Two Line Element Set (TLE):
1 23305U 94064A   18224.49632667 -.00000189 +00000-0 +00000-0 0  9995
2 23305 006.7372 054.5873 0007863 170.0993 020.1192 00.99302639087275
Source of the keplerian elements: AFSPC